Location: Gleizolles
(44.4833°N, 6.7667°E)
Time: 20:54:46
(UTC+00:00)

A-11 Canister half - All Passes

Search period start: 25 June 2024 00:00
Search period end: 05 July 2024 00:00
Orbit: 1524 x 1684 km, 47.3° (Epoch: 25 June)

Date Brightness Start Highest point End Pass type
(mag) Time Alt. Az. Time Alt. Az. Time Alt. Az.
25 Jun - 08:36:02 10° SE 08:37:05 10° ESE 08:38:08 10° ESE daylight
25 Jun - 10:31:22 10° SSW 10:40:08 42° SE 10:48:41 10° ENE daylight
25 Jun - 12:35:03 10° WSW 12:44:32 89° SSE 12:53:53 10° ENE daylight
25 Jun - 14:40:34 10° W 14:49:57 76° N 14:59:17 10° E daylight
25 Jun - 16:45:51 10° WNW 16:55:07 74° SSW 17:04:26 10° SE daylight
25 Jun - 18:51:30 10° WNW 18:59:02 29° SW 19:06:39 10° S daylight
26 Jun - 10:09:44 10° SSW 10:18:25 41° SE 10:26:54 10° ENE daylight
26 Jun - 12:13:16 10° WSW 12:22:47 87° SSE 12:32:08 10° ENE daylight
26 Jun - 14:18:47 10° W 14:28:11 75° N 14:37:30 10° E daylight
26 Jun - 16:24:05 10° WNW 16:33:23 76° SSW 16:42:42 10° ESE daylight
26 Jun - 18:29:40 10° WNW 18:37:21 30° SW 18:45:07 10° S daylight
27 Jun - 09:48:07 10° SSW 09:56:43 39° SE 10:05:07 10° ENE daylight
27 Jun - 11:51:29 10° WSW 12:01:02 86° SSE 12:10:23 10° ENE daylight
27 Jun - 13:56:58 10° W 14:06:24 75° N 14:15:44 10° E daylight
27 Jun - 16:02:19 10° WNW 16:11:38 78° SSW 16:20:58 10° ESE daylight
27 Jun - 18:07:50 10° WNW 18:15:40 32° SW 18:23:35 10° SSE daylight
28 Jun - 09:26:31 10° SSW 09:35:01 37° SE 09:43:19 10° ENE daylight
28 Jun - 11:29:43 10° WSW 11:39:16 84° SSE 11:48:38 10° ENE daylight
28 Jun - 13:35:11 10° W 13:44:37 75° N 13:53:56 10° E daylight
28 Jun - 15:40:33 10° WNW 15:49:53 80° SSW 15:59:13 10° ESE daylight
28 Jun - 17:46:01 10° WNW 17:53:59 34° SW 18:02:01 10° SSE daylight
29 Jun - 09:04:54 10° SSW 09:13:19 35° SE 09:21:31 10° ENE daylight
29 Jun - 11:07:57 10° WSW 11:17:31 82° SSE 11:26:52 10° ENE daylight
29 Jun - 13:13:22 10° W 13:22:50 75° N 13:32:10 10° E daylight
29 Jun - 15:18:47 10° WNW 15:28:09 82° SSW 15:37:28 10° ESE daylight
29 Jun - 17:24:11 10° WNW 17:32:18 35° SW 17:40:27 10° SSE daylight
30 Jun - 08:43:19 10° SSW 08:51:37 34° SE 08:59:42 10° ENE daylight
30 Jun - 10:46:11 10° WSW 10:55:46 80° SSE 11:05:07 10° ENE daylight
30 Jun - 12:51:34 10° W 13:01:03 75° N 13:10:23 10° E daylight
30 Jun - 14:57:01 10° WNW 15:06:23 84° SSW 15:15:43 10° ESE daylight
30 Jun - 17:02:23 10° WNW 17:10:36 37° SW 17:18:53 10° SSE daylight
01 Jul - 08:21:46 10° SSW 08:29:56 32° SE 08:37:53 10° ENE daylight
01 Jul - 10:24:25 10° WSW 10:34:00 78° SSE 10:43:22 10° ENE daylight
01 Jul - 12:29:46 10° W 12:39:16 75° N 12:48:37 10° E daylight
01 Jul - 14:35:14 10° WNW 14:44:38 86° SSW 14:53:58 10° ESE daylight
01 Jul - 16:40:34 10° WNW 16:48:55 39° SW 16:57:18 10° SSE daylight
02 Jul - 08:00:12 10° S 08:08:14 30° SE 08:16:04 10° ENE daylight
02 Jul - 10:02:39 10° SW 10:12:16 75° SSE 10:21:37 10° ENE daylight
02 Jul - 12:07:57 10° W 12:17:29 76° N 12:26:50 10° E daylight
02 Jul - 14:13:28 10° WNW 14:22:53 88° SSW 14:32:13 10° ESE daylight
02 Jul - 16:18:46 10° WNW 16:27:14 41° SW 16:35:42 10° SSE daylight
03 Jul - 07:38:39 10° S 07:46:33 29° SE 07:54:14 10° ENE daylight
03 Jul - 09:40:54 10° SW 09:50:31 73° SSE 09:59:52 10° ENE daylight
03 Jul - 11:46:09 10° W 11:55:42 76° N 12:05:03 10° E daylight
03 Jul - 13:51:41 10° WNW 14:01:08 90° SSW 14:10:28 10° ESE daylight
03 Jul - 15:56:58 10° WNW 16:05:32 43° SW 16:14:05 10° SSE daylight
03 Jul - 18:07:31 10° WSW 18:08:31 10° WSW 18:09:30 10° SW daylight
04 Jul - 07:17:08 10° S 07:24:51 27° SE 07:32:23 10° ENE daylight
04 Jul - 09:19:08 10° SW 09:28:45 71° SSE 09:38:06 10° ENE daylight
04 Jul - 11:24:19 10° W 11:33:56 77° N 11:43:17 10° E daylight
04 Jul - 13:29:54 10° WNW 13:39:23 89° NNE 13:48:42 10° ESE daylight
04 Jul - 15:35:11 10° WNW 15:43:50 45° SW 15:52:28 10° SSE daylight
04 Jul - 17:44:23 10° WSW 17:46:52 11° WSW 17:49:22 10° SW daylight
